Home   Weather   Jamestown   Past weeks
Flag for Saint Helena

Past Weather in Jamestown, Saint Helena — Yesterday and Last 2 Weeks

Now
69 °F

Mild.


Feels Like: 69 °F
Forecast: 79 / 76 °F
Wind: 17 mph from Southeast

Location: Saint Helena Island

Current Time: Mar 25, 2019 at 6:33:53 am

Latest Report: Mar 25, 2019 at 5:00 am


Visibility: N/A

Pressure: 29.99 "Hg

Humidity: 81%

Dew Point: 63 °F

Location of JamestownLocation

Past Weather in Jamestown — Graph

°F

Jamestown Temperature Yesterday

Maximum temperature yesterday: 75 °F (at 12:00 pm)
Minimum temperature yesterday: 70 °F (at 4:50 am)
Average temperature yesterday: 72 °F

High & Low Weather Summary for the Past Weeks

 TemperatureHumidityPressure
High77 °F (Mar 20, 2:50 pm)97% (Mar 11, 8:50 am)30.08 "Hg (Mar 11, 8:50 am)
Low67 °F (Mar 12, 4:00 am)59% (Mar 20, 2:50 pm)29.88 "Hg (Mar 19, 3:50 pm)
Average71 °F83%29.98 "Hg
* Reported Mar 10 11:00 am — Mar 25 5:00 am, Jamestown. Weather by CustomWeather, © 2019

Note: Actual official high and low records may vary slightly from our data, if they occured in-between our weather recording intervals... More about our weather records

Advertising

Jamestown Weather History for the Previous 24 Hours

Scroll right to see more
 ConditionsComfort  
Time TempWeatherWind HumidityBarometerVisibility
5:00 am
Mon, Mar 25
69 °FMild.17 mph81%29.99 "HgN/A
4:00 am70 °FMild.15 mph84%30.00 "HgN/A
3:00 am69 °FMild.15 mph86%30.00 "HgN/A
2:00 am69 °FMild.15 mph90%30.01 "HgN/A
1:00 am70 °FMild.14 mph85%30.03 "HgN/A
10:50 pm
Sun, Mar 24
70 °FMild.15 mph88%30.02 "HgN/A
9:50 pm70 °FMild.18 mph81%30.01 "HgN/A
8:50 pm70 °FMild.14 mph79%30.00 "HgN/A
8:00 pm70 °FMild.16 mph85%29.99 "HgN/A
7:00 pm71 °FMild.18 mph77%29.98 "HgN/A
5:50 pm71 °FMild.17 mph77%29.97 "HgN/A
4:50 pm73 °FMild.15 mph70%29.96 "HgN/A
4:00 pm73 °FMild.12 mph76%29.96 "HgN/A
2:50 pm74 °FMild.14 mph70%29.97 "HgN/A
2:00 pm73 °FMild.22 mph69%29.98 "HgN/A
1:00 pm74 °FMild.15 mph72%29.99 "HgN/A
12:00 pm75 °FMild.20 mph70%30.01 "HgN/A
10:50 am75 °FMild.16 mph71%30.01 "HgN/A
10:00 am74 °FMild.17 mph73%30.02 "HgN/A
9:00 am72 °FMild.16 mph68%30.02 "HgN/A
8:00 am72 °FMild.16 mph64%30.01 "HgN/A
7:00 am71 °FMild.16 mph64%30.01 "HgN/A
6:00 am70 °FMild.14 mph69%30.00 "HgN/A
Weather by CustomWeather, © 2019

See weather overview